Location: Hickory_CSC
(35.7330°N, 81.3330°W)
Time: 09:35:37
(UTC-04:00)

ISS - All Passes

Search period start: 18 April 2014 00:00
Search period end: 28 April 2014 00:00
Orbit: 414 x 419 km, 51.6° (Epoch: 18 April)

Date Brightness Start Highest point End Pass type
(mag) Time Alt. Az. Time Alt. Az. Time Alt. Az.
18 Apr - 00:00:00 21° SE 23:59:45 24° SE 00:01:14 10° SE night (unlit)
18 Apr - 14:59:57 10° SSE 15:01:55 15° SE 15:03:53 10° E daylight
18 Apr - 16:35:10 10° WSW 16:38:22 44° NW 16:41:36 10° NE daylight
18 Apr - 21:31:25 10° N 21:32:14 11° NNE 21:33:03 10° NE visible
18 Apr - 23:06:17 10° NW 23:09:36 56° NE 23:12:53 10° ESE visible
19 Apr - 00:44:43 10° WSW 00:45:57 12° SW 00:47:11 10° SSW night (unlit)
19 Apr - 15:46:40 10° SW 15:50:00 84° NW 15:53:22 10° NE daylight
19 Apr - 17:25:34 10° NW 17:27:12 13° NNW 17:28:50 10° N daylight
19 Apr - 22:18:07 10° NNW 22:21:10 32° NE 22:24:13 10° E visible
19 Apr - 23:55:09 10° WNW 23:57:47 22° SW 00:00:24 10° S visible
20 Apr - 14:58:27 10° SSW 15:01:40 49° SE 15:04:55 10° ENE daylight
20 Apr - 16:36:10 10° WNW 16:38:36 18° NNW 16:41:02 10° NNE daylight
20 Apr - 21:30:03 10° NNW 21:32:39 20° NNE 21:35:15 10° E visible
20 Apr - 23:06:20 10° WNW 23:09:30 40° SW 23:12:40 10° SSE visible
21 Apr - 14:10:34 10° S 14:13:21 25° SE 14:16:10 10° ENE daylight
21 Apr - 15:47:05 10° W 15:50:01 28° NW 15:52:58 10° NNE daylight
21 Apr - 20:42:07 10° N 20:44:01 14° NNE 20:45:54 10° ENE visible
21 Apr - 22:17:46 10° NW 22:21:08 82° SW 22:24:28 10° SE visible
22 Apr - 13:23:19 10° SSE 13:25:04 14° SE 13:26:49 10° E daylight
22 Apr - 14:58:14 10° WSW 15:01:28 48° NW 15:04:44 10° NE daylight
22 Apr - 19:54:51 10° NNE 19:55:16 10° NNE 19:55:41 10° NNE daylight
22 Apr - 21:29:21 10° NW 21:32:39 52° NE 21:35:55 10° ESE visible
22 Apr - 23:07:29 10° W 23:09:01 13° SW 23:10:34 10° SSW visible
23 Apr - 14:09:37 10° SW 14:12:57 88° SE 14:16:18 10° NE daylight
23 Apr - 15:48:20 10° WNW 15:50:06 14° NNW 15:51:51 10° N daylight
23 Apr - 20:41:03 10° NNW 20:44:03 30° NE 20:47:02 10° E visible
23 Apr - 22:17:56 10° WNW 22:20:41 23° SW 22:23:24 10° S visible
24 Apr - 13:21:17 10° SSW 13:24:27 44° SE 13:27:39 10° ENE daylight
24 Apr - 14:58:49 10° W 15:01:20 19° NNW 15:03:51 10° NNE daylight
24 Apr - 19:52:50 10° NNW 19:55:21 19° NNE 19:57:51 10° ENE daylight
24 Apr - 21:29:01 10° WNW 21:32:14 45° SW 21:35:26 10° SSE visible
25 Apr - 12:33:18 10° S 12:35:59 23° SE 12:38:41 10° ENE daylight
25 Apr - 14:09:36 10° W 14:12:36 30° NW 14:15:36 10° NNE daylight
25 Apr - 19:04:48 10° N 19:06:32 13° NNE 19:08:15 10° ENE daylight
25 Apr - 20:40:19 10° NW 20:43:40 90° NE 20:47:01 10° SE visible
26 Apr - 11:46:07 10° SSE 11:47:32 12° SE 11:48:57 10° ESE daylight
26 Apr - 13:20:38 10° WSW 13:23:53 53° NW 13:27:10 10° NE daylight
26 Apr - 15:00:46 10° NNW 15:01:15 10° NNW 15:01:43 10° NNW daylight
26 Apr - 19:51:46 10° NW 19:55:01 47° NE 19:58:15 10° ESE daylight
26 Apr - 21:29:36 10° W 21:31:25 14° SW 21:33:15 10° SSW visible
27 Apr - 12:31:54 10° SW 12:35:13 79° SE 12:38:33 10° NE daylight
27 Apr - 14:10:24 10° WNW 14:12:18 14° NNW 14:14:12 10° N daylight
27 Apr - 19:03:19 10° NNW 19:06:15 27° NE 19:09:09 10° E daylight
27 Apr - 20:40:03 10° WNW 20:42:54 26° SW 20:45:44 10° S visible
